Location: Grandview
(34.8900°N, 117.1058°W)
Time: 10:13:10
(UTC-07:00)

N. Korean satellite - Pass Details

Date: 13 October 2017
Orbit: 459 x 517 km, 97.2° (Epoch: 22 October)

Event Time Altitude Azimuth Distance (km) Brightness Sun altitude
Rises 19:53:52 0° 208° (SSW) 2,557 10.5 -20.9°
Reaches altitude 10° 19:56:50 10° 235° (SW) 1,668 9.9 -21.5°
Maximum altitude 19:58:40 13° 266° (W) 1,458 10.0 -21.9°
Drops below altitude 10° 20:00:29 10° 297° (WNW) 1,657 10.2 -22.3°
Sets 20:03:26 0° 325° (NW) 2,528 10.8 -22.9°
